DW5508 Weather Reports


time (UTC)temp
C
wind
direction
speed
KPH
gust
KPH
rain 1hr
cm
rain 24hr
cm
rain mn
cm
humidity
%
barometer
mb
20260507143020 12 171 3.2 11.3 0.00 0.00 0.00 38 1018.1
20260507141519 12 226 3.2 16.1 0.00 0.00 0.00 39 1018.1
20260507140017 12 101 3.2 16.1 0.00 0.00 0.00 42 1018.1
20260507134517 11 183 3.2 20.9 0.00 0.00 0.00 44 1018.1
20260507133013 11 210 1.6 12.9 0.00 0.00 0.00 50 1018.1
20260507131521 10 136 1.6 16.1 0.00 0.00 0.00 53 1018.1
20260507130011 10 137 1.6 14.5 0.00 0.00 0.00 43 1018.0
20260507124510 10 188 1.6 8.0 0.00 0.00 0.00 39 1018.1
20260507123009 10 39 1.6 11.3 0.00 0.00 0.00 40 1018.0
20260507121508 10 245 1.6 9.7 0.00 0.00 0.00 43 1018.0
20260507120007 9 142 0.0 14.5 0.00 0.00 0.00 49 1017.8
20260507114505 10 160 0.0 16.1 0.00 0.00 0.00 51 1017.9
20260507113004 10 148 0.0 9.7 0.00 0.00 0.00 43 1018.0
20260507111507 10 134 1.6 8.0 0.00 0.00 0.00 44 1018.2
20260507110003 10 156 1.6 17.7 0.00 0.00 0.00 44 1018.2
20260507104502 10 183 1.6 11.3 0.00 0.00 0.00 44 1018.1
20260507103114 10 185 1.6 12.9 0.00 0.00 0.00 43 1018.2
20260507101602 10 112 0.0 9.7 0.00 0.00 0.00 42 1018.2
20260507100112 10 218 1.6 11.3 0.00 0.00 0.00 42 1018.3
20260507094556 10 149 0.0 9.7 0.00 0.03 0.00 44 1018.6
20260507093057 10 139 1.6 11.3 0.00 0.03 0.00 50 1018.8
20260507091556 10 120 0.0 9.7 0.00 0.03 0.00 50 1018.9
20260507090050 10 320 1.6 8.0 0.00 0.03 0.00 48 1019.0
20260507084551 10 119 0.0 4.8 0.00 0.36 0.00 44 1019.1
20260507083104 10 148 0.0 8.0 0.00 0.36 0.00 45 1019.2
20260507081556 10 133 0.0 4.8 0.00 0.36 0.00 46 1019.3
20260507080044 10 226 0.0 4.8 0.00 0.36 0.00 48 1019.5
20260507074543 10 233 0.0 3.2 0.00 0.36 0.00 51 1019.5
20260507073051 10 152 0.0 4.8 0.00 0.36 0.00 49 1019.6
20260507071537 10 180 0.0 3.2 0.00 0.36 0.00 45 1019.7
20260507070040 10 162 0.0 3.2 0.00 0.36 0.00 43 1019.8
20260507064539 10 136 0.0 6.4 0.00 0.36 0.00 44 1019.8
20260507063034 9 144 0.0 3.2 0.00 0.36 0.00 46 1019.8
20260507061530 9 191 0.0 3.2 0.00 0.36 0.00 45 1019.8
20260507060027 9 210 0.0 4.8 0.00 0.36 0.00 43 1019.8
20260507054533 8 223 0.0 1.6 0.00 0.36 0.36 44 1019.7
20260507053026 9 131 0.0 1.6 0.00 0.36 0.36 43 1019.6
20260507051526 10 139 0.0 1.6 0.00 0.36 0.36 41 1019.7
20260507050033 10 114 0.0 1.6 0.00 0.36 0.36 39 1019.7
20260507044537 11 263 0.0 4.8 0.00 0.36 0.36 35 1019.8
20260507043025 11 248 0.0 8.0 0.00 0.36 0.36 35 1019.7
20260507041530 10 226 0.0 1.6 0.00 0.36 0.36 37 1019.8
20260507040023 10 236 0.0 1.6 0.00 0.36 0.36 36 1019.8
20260507034523 10 229 0.0 1.6 0.00 0.36 0.36 37 1019.8
20260507033026 10 215 0.0 1.6 0.00 0.36 0.36 37 1019.7
20260507031526 10 56 0.0 0.0 0.00 0.36 0.36 36 1019.4
20260507030021 11 56 0.0 0.0 0.00 0.36 0.36 34 1019.3
20260507024523 12 56 0.0 0.0 0.00 0.36 0.36 32 1019.3
20260507023020 13 56 0.0 0.0 0.00 0.36 0.36 28 1019.2
20260507021520 15 56 0.0 1.6 0.00 0.36 0.36 26 1019.2
20260507020023 16 11 0.0 1.6 0.00 0.36 0.36 23 1019.3
20260507014524 17 1 0.0 4.8 0.00 0.36 0.36 22 1019.3
20260507013023 17 333 0.0 3.2 0.00 0.36 0.36 22 1019.4
20260507011520 17 21 0.0 6.4 0.00 0.36 0.36 24 1019.4
20260507010017 17 17 0.0 6.4 0.00 0.36 0.36 22 1019.4
20260507004531 17 352 0.0 9.7 0.00 0.36 0.36 24 1019.5
20260507003015 17 248 3.2 8.0 0.00 0.36 0.36 22 1019.5
20260507001517 17 36 1.6 8.0 0.00 0.36 0.36 24 1019.4
20260507000019 17 345 4.8 9.7 0.00 0.36 0.36 24 1019.4
20260506234520 17 293 3.2 14.5 0.00 0.36 0.36 23 1019.4
20260506233011 17 333 3.2 8.0 0.00 0.36 0.36 24 1019.4
20260506231524 17 278 6.4 17.7 0.00 0.36 0.36 24 1019.5
20260506230008 16 325 1.6 19.3 0.00 0.36 0.36 27 1019.4
20260506224510 16 276 6.4 17.7 0.00 0.36 0.36 25 1019.5
20260506223006 16 303 4.8 17.7 0.00 0.36 0.36 24 1019.5
20260506221506 16 277 6.4 16.1 0.00 0.36 0.36 25 1019.7
20260506220003 16 155 11.3 27.4 0.00 0.36 0.36 25 1019.6
20260506214503 15 295 4.8 17.7 0.00 0.36 0.36 27 1020.0
20260506213140 15 301 9.7 17.7 0.00 0.36 0.36 26 1020.0
20260506211627 15 293 4.8 24.1 0.00 0.36 0.36 26 1020.0
20260506204559 15 250 4.8 14.5 0.00 0.36 0.36 28 1020.0
20260506203100 15 292 8.0 22.5 0.00 0.36 0.36 28 1020.2
20260506201604 15 65 6.4 20.9 0.00 0.36 0.36 29 1020.0
20260506200153 14 344 6.4 20.9 0.00 0.36 0.36 28 1020.1
20260506194608 15 294 6.4 19.3 0.00 0.36 0.36 28 1019.9
20260506193051 15 9 8.0 24.1 0.00 0.36 0.36 28 1020.0
20260506191552 14 358 9.7 20.9 0.00 0.36 0.36 25 1019.9
20260506190047 14 59 4.8 17.7 0.00 0.36 0.36 28 1020.0
20260506184551 13 330 4.8 20.9 0.00 0.36 0.36 28 1020.0
20260506183057 13 341 6.4 22.5 0.00 0.36 0.36 28 1020.0
20260506181540 12 314 6.4 22.5 0.00 0.36 0.36 29 1020.0
20260506180041 12 345 8.0 24.1 0.00 0.36 0.36 26 1020.0
20260506174540 12 314 6.4 20.9 0.00 0.36 0.36 29 1020.0
20260506173034 12 145 4.8 19.3 0.00 0.36 0.36 32 1019.9
20260506171533 12 53 4.8 20.9 0.00 0.36 0.36 31 1019.7
20260506170033 11 326 6.4 24.1 0.00 0.36 0.36 34 1019.6
20260506164526 11 360 8.0 19.3 0.00 0.36 0.36 31 1019.4
20260506163026 11 14 9.7 22.5 0.00 0.36 0.36 33 1019.1
20260506161523 11 12 6.4 19.3 0.00 0.36 0.36 35 1018.9
20260506160022 10 4 4.8 16.1 0.00 0.36 0.36 39 1018.8
20260506154519 10 350 4.8 20.9 0.00 0.36 0.36 40 1018.6
20260506153018 10 278 4.8 19.3 0.00 0.36 0.36 42 1018.4
20260506151518 9 62 6.4 22.5 0.00 0.36 0.36 40 1018.2
20260506150014 10 5 4.8 16.1 0.00 0.36 0.36 44 1017.9
20260506144510 10 309 3.2 11.3 0.00 0.36 0.36 50 1017.8